{"data":{"norad_id":66488,"epoch":"2026-09-20T11:50:01.966848Z","epoch_age_seconds":90226,"freshness":"FRESH","line1":"1 66488U 25263D   26263.49307832  .00008802  00000+0  32902-3 0  9991","line2":"2 66488  43.0043 330.3717 0001385 275.4146  84.6547 15.27577222 48699","mean_motion":15.27577222,"eccentricity":0.0001385,"inclination_deg":43.0043,"raan_deg":330.3717,"arg_perigee_deg":275.4146,"mean_anomaly_deg":84.6547,"bstar":0.00032902,"rev_number":4869,"period_min":94.266920143956,"perigee_km":482.10713895725,"apogee_km":484.00768981003,"semimajor_km":6861.1944143836,"source":"CELESTRAK","updated_at":"2026-09-21T09:00:35.919633Z"}}